Weather History for Palm Springs, CA

Change the Weather History Date:

Saturday, February 15, 2014

  Actual Average Record
Temperature  
Mean Temperature 71 °F 60 °F  
Max Temperature 86 °F 72 °F 91 °F (1957)
Min Temperature 55 °F 48 °F 24 °F (1942)
Degree Days  
Heating Degree Days 0 5  
Month to date heating degree days 59 95  
Since 1 July heating degree days 410 722  
Cooling Degree Days 6 1  
Month to date cooling degree days 29 14  
Year to date cooling degree days 66 22  
Growing Degree Days 20 (Base 50)    
Moisture  
Dew Point 25 °F    
Average Humidity 19    
Maximum Humidity 28    
Minimum Humidity 9    
Precipitation  
Precipitation 0.00 in 0.05 in 1.51 in (1986)
Month to date precipitation 0.00 0.46  
Year to date precipitation 0.00 1.46  
Since 1 July precipitation 1.26 4.26  
Snow  
Snow 0.00 in - - ()
Month to date snowfall 0.0  
Year to date snowfall 0.0  
Since 1 July snowfall 0.0  
Snow Depth 0.00 in    
Sea Level Pressure  
Sea Level Pressure 29.96 in    
Wind  
Wind Speed 6 mph (NE)    
Max Wind Speed 12 mph    
Max Gust Speed 14 mph    
Visibility 10 miles    
Events      
T = Trace of Precipitation, MM = Missing Value Source: NWS Daily Summary

Daily Weather History Graph

Daily Weather History Graph

Search for Another Location

Airport:

Trip Planner

Search our weather history database for the weather conditions in past years. The results will help you decide how hot, cold, wet, or windy it might be!

Date:

Astronomy

Feb. 15, 2014 Rise Set
Actual Time 6:30 AM PST 5:30 PM PST
Civil Twilight 6:04 AM PST 5:55 PM PST
Nautical Twilight 5:35 AM PST 6:25 PM PST
Astronomical Twilight 5:06 AM PST 6:54 PM PST
Moon 6:29 PM PST (2/15) 6:35 AM PST (2/15)
Length of Visible Light 11h 51m
Length of Day
11h 00m
Full, 99% of the Moon is Illuminated
Feb 15
Full
Feb 22
Last Quarter
Mar 1
New
Mar 8
First Quarter
Mar 16
Full

Hourly Weather History & Observations

Time (PST) Temp. Dew Point Humidity Pressure Visibility Wind Dir Wind Speed Gust Speed Precip Events Conditions
12:53 AM 63.0 °F 23.0 °F 22% 29.97 in 10.0 mi NW 5.8 mph - N/A   Clear
1:53 AM 62.1 °F 21.9 °F 21% 29.95 in 10.0 mi NW 6.9 mph - N/A   Clear
2:53 AM 61.0 °F 19.9 °F 21% 29.94 in 10.0 mi NNW 6.9 mph - N/A   Clear
3:53 AM 61.0 °F 21.0 °F 21% 29.94 in 10.0 mi North 9.2 mph - N/A   Clear
4:53 AM 57.0 °F 25.0 °F 29% 29.94 in 10.0 mi Variable 3.5 mph - N/A   Clear
5:53 AM 57.0 °F 23.0 °F 27% 29.96 in 10.0 mi North 6.9 mph - N/A   Scattered Clouds
6:53 AM 57.0 °F 21.9 °F 26% 29.97 in 10.0 mi North 3.5 mph - N/A   Clear
7:53 AM 64.9 °F 23.0 °F 20% 30.00 in 10.0 mi NNW 6.9 mph - N/A   Scattered Clouds
8:53 AM 73.0 °F 23.0 °F 15% 30.01 in 10.0 mi North 3.5 mph - N/A   Scattered Clouds
9:53 AM 78.1 °F 21.0 °F 12% 30.01 in 10.0 mi SE 3.5 mph - N/A   Clear
10:53 AM 82.0 °F 19.0 °F 10% 29.99 in 10.0 mi SE 4.6 mph - N/A   Clear
11:53 AM 82.9 °F 18.0 °F 9% 29.98 in 10.0 mi ESE 5.8 mph - N/A   Mostly Cloudy
12:53 PM 84.0 °F 24.1 °F 11% 29.96 in 10.0 mi East 8.1 mph - N/A   Mostly Cloudy
1:53 PM 84.9 °F 19.0 °F 9% 29.94 in 10.0 mi SE 9.2 mph - N/A   Mostly Cloudy
2:53 PM 84.9 °F 25.0 °F 11% 29.92 in 10.0 mi ESE 8.1 mph - N/A   Mostly Cloudy
3:53 PM 84.9 °F 23.0 °F 10% 29.91 in 10.0 mi ESE 5.8 mph - N/A   Mostly Cloudy
4:53 PM 82.9 °F 25.0 °F 12% 29.92 in 10.0 mi ESE 3.5 mph - N/A   Mostly Cloudy
5:53 PM 80.1 °F 28.0 °F 15% 29.93 in 10.0 mi Calm Calm - N/A   Mostly Cloudy
6:53 PM 77.0 °F 28.9 °F 17% 29.94 in 10.0 mi Calm Calm - N/A   Mostly Cloudy
7:53 PM 72.0 °F 32.0 °F 23% 29.95 in 10.0 mi Calm Calm - N/A   Clear
8:53 PM 70.0 °F 34.0 °F 27% 29.96 in 10.0 mi West 3.5 mph - N/A   Clear
9:53 PM 66.9 °F 35.1 °F 31% 29.96 in 10.0 mi Calm Calm - N/A   Clear
10:53 PM 66.0 °F 32.0 °F 28% 29.95 in 10.0 mi Calm Calm - N/A   Clear
11:53 PM 61.0 °F 35.1 °F 38% 29.94 in 10.0 mi Calm Calm - N/A   Clear